TimePST,TemperatureF,Dew PointF,Humidity,Sea Level PressureIn,VisibilityMPH,Wind Direction,Wind SpeedMPH,Gust SpeedMPH,PrecipitationIn,Events,Conditions,WindDirDegrees,DateUTC
12:51 AM,59.0,28.0,31,29.94,10.0,NNW,12.7,-,N/A,,Clear,340,2013-11-05 08:51:00
1:51 AM,59.0,27.0,29,29.93,10.0,NNW,10.4,16.1,N/A,,Clear,340,2013-11-05 09:51:00
2:51 AM,60.1,24.1,25,29.95,10.0,North,8.1,-,N/A,,Clear,350,2013-11-05 10:51:00
3:51 AM,61.0,21.9,22,29.96,10.0,NNW,15.0,-,0.00,Rain,Light Rain,330,2013-11-05 11:51:00
4:51 AM,61.0,19.0,20,29.98,10.0,North,12.7,-,0.00,,Clear,360,2013-11-05 12:51:00
5:51 AM,59.0,18.0,20,30.00,10.0,North,9.2,-,N/A,,Clear,360,2013-11-05 13:51:00
6:51 AM,60.1,18.0,20,30.03,10.0,North,16.1,-,0.00,,Clear,360,2013-11-05 14:51:00
7:51 AM,64.0,18.0,17,30.06,10.0,North,13.8,21.9,N/A,,Clear,360,2013-11-05 15:51:00
8:51 AM,68.0,16.0,14,30.07,10.0,North,17.3,23.0,N/A,,Clear,360,2013-11-05 16:51:00
9:51 AM,70.0,14.0,12,30.08,10.0,North,18.4,26.5,N/A,,Clear,360,2013-11-05 17:51:00
10:51 AM,72.0,12.0,10,30.08,10.0,NNE,15.0,-,N/A,,Clear,20,2013-11-05 18:51:00
11:51 AM,73.0,10.9,9,30.06,10.0,North,17.3,25.3,N/A,,Clear,360,2013-11-05 19:51:00
12:51 PM,73.9,10.0,9,30.04,10.0,North,17.3,26.5,N/A,,Clear,360,2013-11-05 20:51:00
1:51 PM,73.9,8.1,8,30.03,10.0,North,23.0,32.2,N/A,,Clear,350,2013-11-05 21:51:00
2:51 PM,73.9,7.0,8,30.03,10.0,North,17.3,-,N/A,,Clear,350,2013-11-05 22:51:00
3:51 PM,73.0,7.0,8,30.05,10.0,North,12.7,-,N/A,,Clear,360,2013-11-05 23:51:00
4:51 PM,70.0,3.9,7,30.06,10.0,North,13.8,18.4,N/A,,Clear,350,2013-11-06 00:51:00
5:51 PM,66.9,1.9,8,30.08,10.0,North,11.5,-,N/A,,Clear,10,2013-11-06 01:51:00
6:51 PM,66.0,1.9,8,30.09,10.0,North,12.7,-,N/A,,Clear,360,2013-11-06 02:51:00
7:51 PM,66.0,1.9,8,30.09,10.0,North,16.1,-,N/A,,Clear,360,2013-11-06 03:51:00
8:51 PM,66.0,1.0,8,30.11,10.0,North,15.0,-,N/A,,Clear,360,2013-11-06 04:51:00
9:51 PM,64.9,1.9,8,30.12,10.0,North,15.0,-,N/A,,Clear,10,2013-11-06 05:51:00
10:51 PM,64.9,3.0,9,30.12,10.0,North,17.3,25.3,N/A,,Clear,360,2013-11-06 06:51:00
11:51 PM,64.0,3.0,9,30.12,10.0,North,16.1,25.3,N/A,,Clear,360,2013-11-06 07:51:00